STARLINK-4673, 53589

Orbit data source: Space-Track

STARLINK-4673, 53589 is a payload satellite owned by SpaceX/Seattle (US) in LEO that was launched on Sun, 28 Aug 2022 UTC via an FALCON 9 launch vehicle from the Air Force Eastern Test Range (AFETR). Payload-class satellites include a variety of spacecraft equipped with specific instruments for various scientific and technological missions. These include communications satellites like Starlink; space stations such as the ISS; scientific satellites like the Hubble; Earth observation satellites from companies like Planet Labs, Umbra, and HawkEye 360; GPS; miniature CubeSats for education and research; and military/defense satellites.

Loading next visibility...
Identifier
53589, 2022-104B
Orbit
LEO
Country
Flag of USUS
Related business
Manufacturer
SpaceX/Seattle
Mission
Operational Commercial Communications
Bus & Motor
STARLINK, Unknown motor
Mass
300 kg wet, ~290 kg dry
Launch date (UTC)
2022-08-28 (3 years ago)
Launch vehicle
FALCON 9
Launch site
Air Force Eastern Test Range (AFETR)
Object type
Payload
Rocket body
Debris
Shape & HBR
Box + 1 Pan, 10.1 m
Radar Cross Section
13.562 m², Large (>1 m²)

Expand to show TLE details & history
Last TLE update: 17 hours ago

TLE from 17 hours ago
0 STARLINK-4673
1 53589U 22104B   25302.20008966  .00000654  00000-0  59188-4 0  9992
2 53589  53.2159 114.4504 0001262  86.8649 273.2488 15.08841664176098
Epoch: 2025-10-29T04:48Z
TLE epoch observation values (Epoch: 2025-10-29T04:48:07.746Z)
Latitude
0.00001°
Longitude
4.64149°
Altitude
540.586 km
Speed
7.593 km/s
True Right ascension
07h 37m 48s
True Declination
0° 00' 00"
Sunlit
Object was in daylight at epoch
Visualization orbit readout
Latitude
Unknown
Longitude
Unknown
Altitude
Unknown
Speed
Unknown
Apparent Right ascension
Unknown
Apparent Declination
Unknown
Sunlit
N/A
Visualization observer readout
Local Sidereal Time
17:38:48
Azimuth
Unknown
Elevation
Unknown
Doppler factor
Unknown
Orbital elements
Apogee altitude
540.857 km
Perigee altitude
539.11 km
Semi-major axis
6,918.12 km
Eccentricity
0.00013
Inclination
53.2159°
RAAN
114.4504°
Arg. of periapsis
86.8649°
True anomaly
273.23436°
Mean anomaly
273.2488°
Eccentric anomaly
273.24158°
Mean motion
3.77191 °/min
Orbital period
95.44 mins
BSTAR
0.000059188
Loading maneuver chart data...
Computing Atmospheric mass density...
Loading historical data...
Loading historical data...
Loading historical data...
Loading historical data...
Loading historical data...
Loading historical data...
Loading historical data...

Documentation

Showing up to 5 results
|